Tracking 19636 objects as of 25-May-2019
HD Live streaming from Space Station
objects crossing your sky now

INTELSAT 8 (PAS 8)

Track INTELSAT 8 (PAS 8) now!
INTELSAT 8 (PAS 8) is classified as:


NORAD ID: 25522
Int'l Code: 1998-065A
Perigee: 36,014.1 km
Apogee: 38,551.0 km
Inclination: 2.6 °
Period: 1,512.8 minutes
Semi major axis: 43653 km
RCS: 39.8107 m2 (large)
Launch date: November 4, 1998
Source: United States (US)
Launch site: TYURATAM MISSILE AND SPACE COMPLEX (TTMTR)

Television broadcast; 24 Ku-band; Asia-Pacific.
aabbcc
Your satellite tracking list
Your tracking list is empty




NASA's NSSDC Master Catalog

Two Line Element Set (TLE):
1 25522U 98065A   19144.59857959 -.00000129 +00000-0 +00000-0 0  9993
2 25522 002.6259 085.1482 0290568 236.9714 039.6605 00.95186009020247
Source of the keplerian elements: AFSPC